TIME,DELAY(SENSOR),PRES,T(CTD),SAL,OXYGEN,RAWTEMP,T(OPTODE),TCPHASE,TURBIDITY,TURBIDITY_GAIN,FLUOR,BETA,CDOM,CSC,CHECK
1349641250,8892,976.3200073242188000,6.5439000129699710,35.0791015625000000,234.9022979736328000,672.6519165039062000,6.5317459106445310,36.7466583251953100,16,3,51,84,64,15707,46550
1349641375,8893,965.4600219726562000,6.6522998809814450,35.0858001708984400,230.1174011230468800,669.4598999023438000,6.6377449035644530,36.9367599487304700,15,3,50,86,64,15724,24537
1349641512,8893,953.9799804687500000,6.7795000076293945,35.0900001525878900,226.6349029541015600,665.8090209960938000,6.7588391304016110,37.0535087585449200,16,3,52,84,64,15724,13429
1349641637,8894,943.6900024414062000,6.9528999328613280,35.0951004028320300,222.5989990234375000,660.5604248046875000,6.9326438903808590,37.1735382080078100,15,3,50,85,64,15726,29457
1349641774,8892,932.4199829101562000,7.1020002365112305,35.1007003784179700,216.7610015869140600,656.0244140625000000,7.0825939178466800,37.4123802185058600,16,3,50,84,62,15724,53369
1349641911,8893,919.5900268554688000,7.2262001037597660,35.1057014465332000,213.8605041503906200,652.2401123046875000,7.2075119018554690,37.5066108703613300,15,3,51,84,63,15725,63552
1349642015,8893,908.1599731445312000,7.3555002212524410,35.1116981506347660,210.4405975341797000,648.3903198242188000,7.3344249725341800,37.6317710876464840,15,3,50,85,64,15724,55418
1349642137,8892,894.5300292968750000,7.4614000320434570,35.1185989379882800,207.2178955078125000,644.2048950195312000,7.4722118377685550,37.7428092956543000,16,3,50,84,64,15724,23233
1349642265,8893,882.0999755859375000,7.6006999015808105,35.1246986389160160,204.1578979492187500,640.8917236328125000,7.5811438560485840,37.8625411987304700,16,3,50,84,64,15725,61
1349642413,8893,871.6599731445312000,7.6160998344421390,35.1267013549804700,203.5637969970703000,640.3544921875000000,7.5987930297851560,37.8885002136230500,16,3,50,84,64,15726,3605
1349642571,8893,860.5999755859375000,7.9928002357482910,35.1404991149902340,195.7680053710937500,628.5897827148438000,7.9845409393310550,38.1503105163574200,16,3,50,84,64,15724,45510
1349642708,8892,848.4500122070312000,8.3029003143310550,35.1656990051269500,188.3894958496093800,619.0416870117188000,8.2965106964111330,38.4472618103027340,15,3,50,84,64,15728,26126
1349642824,8894,837.4699707031250000,8.4610004425048830,35.1781997680664060,185.3694000244140600,614.6074218750000000,8.4410648345947270,38.5643615722656250,15,3,50,84,64,15726,55755
1349642951,8893,825.6300048828125000,8.6617002487182620,35.1839981079101560,183.0402069091797000,608.2913818359375000,8.6466064453125000,38.6061897277832000,16,3,50,86,64,15720,59445
1349643078,8894,813.9500122070312000,8.9183998107910160,35.1907997131347660,177.0944976806640600,599.5836181640625000,8.9293117523193360,38.8547515869140600,16,3,50,86,63,15720,14360
1349643193,8893,803.4500122070312000,9.1513004302978520,35.2125015258789060,173.8766021728515600,592.8242187500000000,9.1482391357421880,38.9598388671875000,15,3,52,84,64,15718,14640
1349643320,8893,791.9299926757812000,9.6261997222900390,35.2566986083984400,170.4246978759765600,578.0416870117188000,9.6254558563232420,38.9481010437011700,16,3,50,84,62,15722,55024
1349643435,8891,781.1300048828125000,9.7833003997802730,35.2769012451171900,171.4306030273437500,573.1002197265625000,9.7845172882080080,38.7920799255371100,16,3,50,84,62,15720,19146
1349643550,8892,769.8300170898438000,9.9264001846313480,35.2971000671386700,171.4618988037109400,568.6817016601562000,9.9265499114990230,38.7145500183105500,16,3,51,84,62,15724,42447
1349643665,8892,758.4799804687500000,10.1142997741699220,35.3190994262695300,172.1380004882812500,563.0983886718750000,10.1057701110839840,38.5725288391113300,15,3,50,82,63,15724,32544
1349643792,8893,746.5499877929688000,10.4728002548217770,35.3541984558105500,171.0205993652343800,551.9113159179688000,10.4640197753906250,38.4627304077148440,16,3,50,84,62,15722,51443
1349643919,8893,734.9299926757812000,10.5782003402709960,35.3600006103515600,168.9651947021484400,548.5277709960938000,10.5721502304077150,38.5530395507812500,16,3,50,84,61,15719,14531
1349644046,8893,723.5300292968750000,10.8781003952026370,35.3907012939453100,165.7333984375000000,539.8726196289062000,10.8483104705810550,38.6438407897949200,15,3,50,87,62,15715,63000
1349644173,8893,712.2399902343750000,11.2501001358032230,35.4494018554687500,170.9972991943359400,527.4019165039062000,11.2451095581054690,38.0575408935546900,16,3,50,82,61,15724,38671
1349644300,8891,700.9899902343750000,11.4432001113891600,35.4718017578125000,173.3892059326172000,521.0169067382812000,11.4477796554565430,37.7846488952636700,16,3,50,84,62,15720,10531
1349644413,8893,690.4000244140625000,11.7096996307373050,35.4942016601562500,168.3273010253906200,512.7100219726562000,11.7109699249267580,38.0084495544433600,16,3,50,84,60,15718,155
1349644529,8893,679.2999877929688000,11.9674997329711910,35.5178985595703100,167.0953063964843800,503.9023132324219000,11.9894504547119140,37.9544105529785160,16,3,50,88,60,15711,45653
1349644644,8893,668.0000000000000000,12.2326002120971680,35.5597991943359400,168.0440979003906200,495.7210998535156000,12.2475996017456050,37.7549018859863300,15,3,50,86,60,15714,35365
1349644759,8892,656.7800292968750000,12.6147003173828120,35.6164016723632800,170.5148010253906200,483.7009887695312500,12.6260004043579100,37.3857688903808600,15,3,50,84,60,15716,51682
1349644874,8892,645.7399902343750000,12.8371000289917000,35.6516990661621100,176.6354980468750000,476.5411071777344000,12.8509302139282230,36.8456192016601560,16,3,50,84,60,15717,32865
1349644989,8893,635.3599853515625000,13.1583003997802730,35.6997985839843750,183.3014068603515600,466.4276123046875000,13.1680603027343750,36.2401885986328100,16,3,50,84,60,15717,62459
1349645116,8893,624.9899902343750000,13.3937997817993160,35.7276992797851560,180.7144927978515600,458.9010009765625000,13.4036302566528320,36.2935104370117200,15,3,50,86,60,15713,14412
1349645274,8892,613.0200195312500000,13.6712999343872070,35.7732009887695300,187.2825012207031200,449.4804077148437500,13.6979904174804690,35.7188911437988300,15,3,50,84,58,15712,48457
1349645403,8892,601.6300048828125000,14.0101995468139650,35.8343009948730500,196.3298034667968800,438.8370056152344000,14.0299196243286130,34.9938316345214840,16,3,50,86,58,15714,714
1349645530,8893,590.1699829101562000,14.3184995651245120,35.8834991455078100,200.8105926513672000,428.9769897460937500,14.3368396759033200,34.5778312683105500,16,3,50,84,58,15712,48715
1349645645,8893,579.6199951171875000,14.5544004440307620,35.9224014282226560,202.7153930664062500,421.7835083007812500,14.5604200363159180,34.3590011596679700,15,3,50,84,58,15714,28359
1349645760,8892,568.3200073242188000,14.9917001724243160,35.9917984008789060,199.8209991455078000,407.5775146484375000,15.0011701583862300,34.3175582885742200,15,3,50,84,58,15714,923
1349645873,8892,556.6300048828125000,15.1833000183105470,36.0298995971679700,201.6945037841797000,401.0905151367187500,15.2020998001098630,34.1121101379394500,20,3,50,86,56,15714,22017
1349645971,8894,546.5000000000000000,15.3332004547119140,36.0564002990722660,204.0778045654297000,396.4650878906250000,15.3452501296997070,33.9067497253418000,15,3,50,83,58,15714,42956
1349646092,8894,535.2500000000000000,15.4179000854492190,36.0723991394043000,206.2364959716797000,393.7381896972656000,15.4295902252197270,33.7444190979003900,16,3,50,84,57,15714,27706
1349646219,8893,523.9000244140625000,15.5150003433227540,36.0882987976074200,207.3827056884765600,390.3255004882812500,15.5350999832153320,33.6301918029785160,16,3,50,87,58,15712,38880
1349646346,8893,513.0599975585938000,15.7089996337890620,36.1209983825683600,208.2474060058593800,384.2821960449219000,15.7218198776245120,33.4942092895507800,15,3,50,84,58,15712,4238
1349646473,8893,502.8900146484375000,15.8125000000000000,36.1399002075195300,206.5381011962890600,381.0813903808594000,15.8206501007080080,33.5436286926269500,16,3,50,84,58,15713,1433
1349646640,8894,488.9599914550781000,16.0333995819091800,36.1786994934082000,206.0738983154297000,373.7797851562500000,16.0459403991699220,33.4649887084960940,15,3,50,84,57,15711,44068
1349646756,8893,478.0199890136719000,16.2110004425048830,36.2106018066406250,206.6295928955078000,367.9772033691406000,16.2248306274414060,33.3503303527832000,16,3,49,86,56,15712,45634
1349646883,8893,466.6799926757812500,16.3602008819580080,36.2405014038085940,209.7351074218750000,363.0309143066406000,16.3772201538085940,33.1076889038085940,15,3,50,84,56,15711,33486
1349647010,8894,455.4200134277344000,16.5804996490478500,36.2812995910644500,214.4868011474609400,356.0763854980469000,16.5913295745849600,32.7512512207031250,15,3,48,80,57,15712,27518
1349647137,8892,444.4299926757812500,16.7420005798339840,36.3129005432128900,218.4685974121093800,350.9710083007812500,16.7483997344970700,32.4689598083496100,16,3,48,80,56,15712,64596
1349647264,8894,433.2399902343750000,16.8799991607666000,36.3413009643554700,222.4378967285156200,346.4295959472656000,16.8880500793457030,32.2002487182617200,16,3,48,84,56,15710,52501
1349647391,8893,422.2500000000000000,16.9564990997314450,36.3563995361328100,224.8822021484375000,343.9104919433594000,16.9654808044433600,32.0415611267089840,16,3,48,83,54,15710,4606
1349647518,8894,411.0199890136719000,17.0674991607666000,36.3785018920898440,226.3094940185547000,340.2056884765625000,17.0793209075927730,31.9188594818115230,15,3,48,82,55,15708,17712
1349647645,8893,399.8200073242187500,17.2241001129150400,36.4075012207031250,227.5135955810547000,335.2491149902344000,17.2315597534179700,31.7907009124755860,15,3,48,82,55,15709,60300
1349647710,8894,394.1300048828125000,17.2635993957519530,36.4151992797851560,228.3453979492187500,333.6778869628906000,17.2798099517822270,31.7279796600341800,15,3,48,83,55,15710,65462
1349647778,8892,388.2900085449219000,17.3148994445800780,36.4248008728027340,229.2285003662109400,332.2141113281250000,17.3247509002685550,31.6643009185791000,15,3,49,86,53,15709,26354
1349647843,8892,382.7500000000000000,17.3516006469726560,36.4318008422851560,229.5146942138672000,331.0611877441406000,17.3601398468017580,31.6348991394042970,15,3,48,85,54,15708,20974
1349647923,8892,376.0899963378906000,17.3948993682861330,36.4404983520507800,229.7454986572265600,329.5851135253906000,17.4054508209228500,31.6032009124755860,16,3,50,84,54,15708,32507
1349647988,8893,370.6600036621094000,17.4260997772216800,36.4449996948242200,229.5274047851562500,328.7373962402344000,17.4314594268798830,31.6024093627929700,15,3,48,82,54,15709,50654
1349648068,8892,364.0000000000000000,17.4587993621826170,36.4468002319335940,228.3793029785156200,327.5895996093750000,17.4666900634765620,31.6434593200683600,15,3,49,84,54,15707,9634
1349648133,8893,358.8699951171875000,17.5356998443603500,36.4650993347168000,229.6869964599609400,324.8121032714844000,17.5519008636474600,31.5413398742675780,16,3,50,84,54,15708,8737
1349648231,8892,350.9599914550781000,17.5970993041992200,36.4701004028320300,228.8925018310547000,322.8749084472656000,17.6113300323486330,31.5540790557861330,15,3,50,86,54,15708,38343
1349648320,8894,343.0199890136719000,17.7147998809814450,36.4948005676269500,228.8665008544922000,318.9924926757812500,17.7304000854492200,31.5026397705078120,15,3,50,84,55,15709,44611
1349648388,8893,336.5899963378906000,17.8383998870849600,36.5205993652343750,231.9042053222656200,314.9599914550781000,17.8540306091308600,31.3006000518798830,16,3,50,84,54,15708,48109
1349648453,8893,330.2999877929687500,17.9090995788574220,36.5340003967285160,234.1380004882812500,312.9110107421875000,17.9168300628662100,31.1661891937255860,16,3,50,84,53,15708,18127
1349648521,8893,323.6700134277344000,17.9526996612548830,36.5400009155273440,234.7335052490234400,311.4794921875000000,17.9606990814209000,31.1184806823730470,16,3,49,84,53,15706,50551
1349648586,8893,317.0899963378906000,18.0149002075195300,36.5498008728027340,234.0749053955078000,309.2792968750000000,18.0281295776367200,31.1204490661621100,15,3,50,86,53,15706,23858
1349648684,8893,307.4500122070312500,18.0771999359130860,36.5588989257812500,234.6457977294922000,307.3711853027344000,18.0865898132324220,31.0679397583007800,15,3,50,86,54,15708,7302
1349648767,8893,299.9500122070312500,18.1002006530761720,36.5619010925293000,234.5310974121093800,306.4714965820312500,18.1141490936279300,31.0611400604248050,21,3,50,84,52,15706,7487
1349648835,8892,294.1099853515625000,18.1478996276855470,36.5675010681152340,234.3986968994140600,304.9977111816406000,18.1592998504638670,31.0478191375732420,16,3,50,84,54,15706,36416
1349648900,8894,288.4400024414062500,18.1558990478515620,36.5690994262695300,234.3280944824218800,304.7626037597656000,18.1665000915527340,31.0480709075927730,16,3,48,84,53,15708,51868
1349648968,8893,282.4899902343750000,18.1854000091552730,36.5699005126953100,233.8807067871093800,303.8504028320312500,18.1944408416748050,31.0572109222412100,16,3,48,84,53,15706,3016
1349649045,8892,275.8099975585937500,18.2073001861572270,36.5698013305664060,233.2042999267578000,303.0555114746094000,18.2187900543212900,31.0789299011230470,16,3,50,86,54,15706,65055
1349649162,8892,265.7900085449219000,18.2961006164550780,36.5782012939453100,232.4111022949218800,300.2349853515625000,18.3051605224609380,31.0792503356933600,16,3,50,86,52,15704,38493
1349649241,8893,259.3999938964844000,18.3244991302490230,36.5819015502929700,231.8267974853515600,299.2522888183594000,18.3352508544921880,31.0941505432128900,15,3,50,86,54,15704,17071
1349649318,8893,253.1799926757812500,18.2721004486084000,36.5531005859375000,230.3285980224609400,300.9324035644531000,18.2838096618652340,31.1887397766113280,15,3,50,86,54,15702,21282
1349649386,8893,247.7200012207031200,18.2849006652832030,36.5508995056152340,228.1535034179687500,300.4436035156250000,18.2987709045410160,31.2884101867675780,15,3,49,84,53,15704,12212
1349649463,8893,241.5000000000000000,18.3250999450683600,36.5474014282226560,226.9662933349609400,299.1408996582031000,18.3386592864990230,31.3294105529785160,16,3,50,86,54,15703,65327
1349649531,8892,235.9799957275390600,18.4325008392334000,36.5592994689941400,225.4416961669922000,295.9686889648437500,18.4357795715332030,31.3624191284179700,15,3,50,86,53,15703,43395
1349649596,8893,230.7500000000000000,18.4468994140625000,36.5545997619628900,224.7266998291015600,295.1593017578125000,18.4605598449707030,31.3871498107910160,16,3,50,86,54,15704,54999
1349649676,8891,224.2700042724609400,18.4853992462158200,36.5542984008789060,225.2512969970703000,293.8662109375000000,18.5001392364501950,31.3436698913574220,16,3,50,85,52,15702,51489
1349649753,8892,217.9900054931640600,18.6105003356933600,36.5601997375488300,225.2926025390625000,289.9775085449219000,18.6191596984863280,31.2897796630859380,16,3,50,86,54,15703,4025
1349649821,8893,212.3999938964843800,18.5643005371093750,36.5388984680175800,232.5883941650390600,291.1091918945312500,18.5845298767089840,30.9494895935058600,16,3,51,86,53,15700,64770
1349649898,8892,206.1999969482422000,18.7012004852294920,36.5569992065429700,230.7232055664062500,289.6539916992187500,18.6290607452392580,31.0200099945068360,16,3,52,86,52,15698,12512
1349649966,8893,201.0000000000000000,18.6550998687744140,36.5121994018554700,240.2283935546875000,288.3622131347656000,18.6685905456542970,30.5555095672607420,16,3,54,87,53,15692,51621
1349650031,8893,196.3600006103515600,18.7964000701904300,36.5386009216308600,241.6784057617187500,283.5790100097656000,18.8149394989013670,30.4268207550048830,15,3,52,86,52,15698,7702
1349650124,8893,190.6600036621093800,18.9412002563476560,36.5508995056152340,242.3990936279297000,279.3442993164062500,18.9444808959960940,30.3388099670410160,16,3,52,88,53,15697,27704
1349650189,8893,187.6499938964843800,18.9605998992919920,36.5564002990722660,242.5812988281250000,278.6413879394531000,18.9659690856933600,30.3214092254638670,16,3,50,86,52,15700,62865
1349650257,8893,184.6100006103515600,18.9750003814697270,36.5600013732910160,242.6208953857422000,278.1152954101562500,18.9820709228515620,30.3126602172851560,16,3,50,86,52,15700,7034
1349650322,8894,181.7100067138672000,18.9860000610351560,36.5597000122070300,242.6994934082031200,277.7544860839844000,18.9930992126464840,30.3044891357421880,16,3,50,87,52,15700,34583
1349650390,8892,178.6199951171875000,18.9934997558593750,36.5598983764648440,242.7424926757812500,277.5321960449219000,18.9999008178710940,30.2995605468750000,15,3,50,87,52,15703,24535
1349650455,8893,175.5399932861328000,19.0344009399414060,36.5565986633300800,242.4774017333984400,276.2861022949219000,19.0380096435546880,30.2954597473144530,16,3,52,86,52,15698,10332
1349650523,8892,172.2599945068359400,19.0599002838134770,36.5539016723632800,242.8032989501953000,275.3468017578125000,19.0667304992675780,30.2684192657470700,16,3,52,86,52,15698,34008
1349650588,8894,169.3200073242187500,19.0946998596191400,36.5536003112793000,244.2604064941406200,274.2814025878906000,19.0993099212646500,30.1890602111816400,16,3,52,87,50,15699,57504
1349650656,8892,166.2700042724609400,19.1166000366210940,36.5568008422851560,245.0980987548828000,273.5914916992187500,19.1204109191894530,30.1427097320556640,15,3,52,86,52,15697,22120
1349650721,8892,163.3899993896484400,19.1231002807617200,36.5569000244140600,245.1338958740234400,273.4848022460937500,19.1236705780029300,30.1397399902343750,16,3,52,84,52,15698,51443
1349650789,8892,160.3699951171875000,19.1110000610351560,36.5457992553710940,245.7805023193359400,273.5809020996094000,19.1207294464111330,30.1119594573974600,15,3,56,87,52,15694,13072
1349650854,8892,157.5500030517578000,19.1513996124267580,36.5545005798339840,246.4035949707031200,272.4740905761719000,19.1545791625976560,30.0701103210449220,15,3,56,89,51,15693,30406
1349650922,8893,154.7200012207031200,19.1644992828369140,36.5582008361816400,247.0895996093750000,271.9067077636719000,19.1719207763671880,30.0322895050048830,16,3,52,88,52,15695,493
1349650987,8892,152.1300048828125000,19.1672992706298830,36.5544013977050800,247.5415954589843800,271.8222045898437500,19.1745090484619140,30.0113105773925780,16,3,56,90,52,15694,50943
1349651055,8892,149.4900054931640600,19.2306003570556640,36.5639991760253900,248.2322998046875000,269.8340148925781000,19.2353000640869140,29.9553394317626950,15,3,54,92,50,15694,12399
1349651120,8893,147.0299987792968800,19.2285995483398440,36.5617980957031250,248.7243041992187500,269.7369079589844000,19.2382602691650400,29.9324207305908200,15,3,54,88,51,15692,19271
1349651211,8894,142.8399963378906200,19.2131996154785160,36.5542984008789060,248.3592987060547000,270.2192077636719000,19.2235202789306640,29.9547595977783200,15,3,60,92,51,15688,29118
1349651276,8892,139.0099945068359400,19.2513008117675780,36.5533981323242200,247.6813049316406200,269.1571044921875000,19.2559890747070300,29.9708099365234380,15,3,66,93,52,15683,17158
1349651344,8894,134.8699951171875000,19.3101997375488280,36.5609016418457000,246.6427001953125000,267.1704101562500000,19.3167304992675780,29.9909305572509770,15,3,64,95,51,15678,17566
1349651409,8892,131.1000061035156200,19.3486995697021500,36.5628013610839840,247.7256927490234400,265.8086853027344000,19.3583602905273440,29.9256896972656250,15,3,68,93,51,15676,62081
1349651477,8894,127.1900024414062500,19.4220008850097660,36.5741996765136700,248.1483001708984400,263.4124145507812500,19.4316005706787100,29.8763904571533200,15,3,71,94,50,15672,16383
1349651542,8893,123.5500030517578100,19.4654006958007800,36.5756988525390600,248.5755004882812500,262.0975036621094000,19.4717998504638670,29.8407402038574220,16,3,78,94,51,15668,3835
1349651610,8895,119.9499969482421900,19.5466995239257800,36.5695991516113300,248.5258941650390600,259.5570983886719000,19.5494403839111330,29.8106098175048830,15,3,88,101,52,15652,34251
1349651675,8898,116.9400024414062500,19.7192001342773440,36.5824012756347660,248.7055969238281200,254.2212982177734400,19.7125091552734380,29.7346591949462900,15,3,103,106,52,15636,55496
1349651743,8899,114.4800033569336000,19.7565994262695300,36.5672988891601560,249.6699066162109400,252.7243041992187500,19.7582607269287100,29.6734504699707030,16,3,110,109,52,15608,48657
1349651808,8899,112.5299987792968800,19.7805995941162100,36.5652999877929700,250.0030975341797000,251.9425048828125000,19.7821407318115230,29.6490001678466800,15,3,114,106,52,15612,30518
1349651902,8899,109.0800018310546900,20.0109996795654300,36.5679016113281250,250.8527984619140600,244.4064941406250000,20.0123996734619140,29.5167293548584000,16,3,130,109,52,15586,36959
1349651967,8899,105.6399993896484400,20.1170997619628900,36.5667991638183600,253.5097961425781200,239.9122009277343800,20.1497097015380860,29.3463096618652340,16,3,140,107,52,15577,23100
1349652035,8899,101.5599975585937500,20.2942008972167970,36.5647010803222660,257.0047912597656000,235.2366027832031200,20.2925491333007800,29.1403999328613280,16,3,146,109,54,15560,63631
1349652100,8899,97.4000015258789000,20.4831008911132800,36.5656013488769500,259.1456909179687500,228.7949981689453000,20.4893302917480470,28.9708900451660160,16,3,152,112,51,15547,50549
1349652190,8900,92.8799972534179700,20.5951995849609380,36.5565986633300800,263.4710083007812500,225.5146026611328000,20.5895404815673830,28.7534599304199220,16,3,152,109,54,15553,57847
1349652316,8900,91.5599975585937500,20.7901000976562500,36.5467987060546900,266.0060119628906000,219.3645019531250000,20.7774200439453120,28.5756092071533200,16,3,127,108,52,15561,34318
1349652469,8899,89.3300018310546900,21.1898002624511720,36.5612983703613300,267.4858093261719000,205.8871002197265600,21.1891708374023440,28.3514595031738280,16,3,116,109,50,15547,55616
1349652534,8900,86.6699981689453100,21.3645000457763670,36.5435981750488300,268.6383972167969000,200.2151031494140600,21.3624801635742200,28.2369804382324220,31,3,107,108,50,15558,33630
1349652628,8896,80.7900009155273400,21.5520992279052730,36.5446014404296900,272.1146850585937500,193.8426971435547000,21.5572204589843750,28.0241508483886720,15,3,96,108,50,15557,53867
1349652693,8896,75.7099990844726600,21.7483005523681640,36.5379981994628900,272.1564025878906000,185.0821075439453000,21.8250007629394530,27.9169197082519530,16,3,94,109,50,15555,45941
1349652783,8897,70.6200027465820300,22.5974006652832030,36.5405998229980500,270.7132873535156000,164.9933013916015600,22.4393997192382800,27.7314796447753900,16,3,96,110,50,15553,21424
1349652909,8897,69.0899963378906200,22.5895004272460940,36.5503005981445300,270.5911865234375000,160.9472961425781200,22.5632190704345700,27.6879291534423830,15,3,89,110,49,15550,38840
1349652974,8897,67.1399993896484400,22.7453002929687500,36.5169982910156250,270.8689880371094000,155.7736968994140600,22.7215805053710940,27.6154708862304700,16,3,90,108,49,15541,34713
1349653068,8896,64.7500000000000000,23.1664009094238280,36.4987983703613300,270.9667053222656000,141.9579925537109400,23.1447505950927730,27.4478206634521500,14,3,85,110,48,15545,50530
1349653133,8895,63.1300010681152340,23.3148002624511720,36.5175018310546900,270.1636047363281000,137.0202026367187500,23.2960891723632800,27.4201698303222660,15,3,84,110,49,15546,43959
1349653227,8896,60.1399993896484400,24.0610008239746100,36.5051994323730500,265.4052124023437500,114.5251998901367200,23.9863491058349600,27.3392601013183600,16,3,86,111,48,15545,44124
1349653329,8896,58.4199981689453100,24.4066009521484380,36.4726982116699200,263.2734069824219000,105.3371963500976600,24.2687091827392580,27.3147296905517580,16,3,85,113,47,15538,28600
1349653546,8896,54.1500015258789060,25.1529006958007800,36.4286994934082000,257.4301147460937500,79.8415832519531200,25.0537109375000000,27.2476291656494140,14,3,74,112,48,15545,63507
1349653611,8896,49.4599990844726560,25.6443004608154300,36.3796997070312500,253.4389953613281200,65.8815231323242200,25.4846000671386720,27.2455406188964840,14,3,75,110,47,15544,33910